Flag for Netherlands Weather past 2 weeks in Amsterdam, Netherlands

Now
48 °F

Passing clouds.


Feels Like: 40 °F
Forecast: 41 / 49 °F
Wind: 25 mph from Northwest

Location: Amsterdam Schiphol Airport

Current Time: Mar 30, 2015 at 3:53:01 PM

Latest Report: Mar 30, 2015 at 2:55 PM


Visibility: N/A

Pressure: 29.77 "Hg

Humidity: 62%

Dew point: 36 °F

Location of AmsterdamLocation

Historic Weather in Amsterdam — Graph

°F

Amsterdam temperature yesterday

Maximum temperature yesterday: 52 °F (at 4:55 PM)
Minimum temperature yesterday: 45 °F (at 9:25 PM)
Average temperature yesterday: 48 °F

Past Weeks' High & Low Weather Summary

 TemperatureHumidityPressure
High59 °F (Mar 17, 1:25 PM)100% (Mar 17, 4:55 AM)30.42 "Hg (Mar 17, 4:55 AM)
Low28 °F (Mar 23, 6:55 AM)48% (Mar 17, 1:55 PM)29.15 "Hg (Mar 29, 5:25 PM)
Average43 °F84%30.02 "Hg
* Reported Mar 15 1:25 PM — Mar 30 2:25 PM, Amsterdam, Weather by CustomWeather, © 2015

Note: Actual official high and low records may vary slightly from our data, if they occured in-between our weather recording intervals... More about our weather records

Advertising

Amsterdam weather history for previous 24 hours

 ConditionsComfort  
Time TempWeatherWind HumidityBarometerVisibility
2:25 PM
Mon, Mar 30
45 °FPassing clouds.26 mph66%29.74 "HgN/A
1:55 PM45 °FPassing clouds.28 mph66%29.74 "HgN/A
1:25 PM45 °FScattered clouds.28 mph66%29.71 "HgN/A
12:55 PM46 °FPassing clouds.28 mph62%29.68 "HgN/A
12:25 PM46 °FPassing clouds.30 mph66%29.65 "HgN/A
11:55 AM46 °FPassing clouds.28 mph66%29.65 "HgN/A
11:25 AM46 °FPassing clouds.29 mph71%29.62 "HgN/A
10:55 AM45 °FPassing clouds.30 mph71%29.59 "HgN/A
10:25 AM45 °FPassing clouds.29 mph76%29.59 "HgN/A
9:55 AM45 °FScattered clouds.25 mph76%29.56 "HgN/A
9:25 AM45 °FPartly sunny.25 mph71%29.56 "HgN/A
8:55 AM43 °FPassing clouds.23 mph76%29.53 "HgN/A
8:25 AM43 °FPassing clouds.24 mph76%29.53 "HgN/A
7:55 AM43 °FPassing clouds.26 mph76%29.50 "HgN/A
7:25 AM43 °FPassing clouds.25 mph76%29.47 "HgN/A
6:55 AM43 °FPassing clouds.24 mph76%29.47 "HgN/A
6:25 AM43 °FPassing clouds.29 mph76%29.45 "HgN/A
5:55 AM43 °FPassing clouds.24 mph81%29.45 "HgN/A
5:25 AM43 °FPassing clouds.26 mph76%29.45 "HgN/A
4:55 AM43 °FPassing clouds.24 mph76%29.42 "HgN/A
4:25 AM43 °FClear.26 mph76%29.42 "Hg10 mi
3:55 AM43 °FPassing clouds.25 mph81%29.42 "HgN/A
3:25 AM45 °FPassing clouds.24 mph76%29.42 "HgN/A
2:55 AM43 °FPassing clouds.24 mph81%29.42 "HgN/A
2:25 AM45 °FPassing clouds.25 mph81%29.42 "HgN/A
1:55 AM45 °FPassing clouds.23 mph81%29.39 "HgN/A
1:25 AM45 °FPassing clouds.23 mph81%29.39 "HgN/A
12:55 AM46 °FPassing clouds.21 mph76%29.36 "HgN/A
12:25 AM46 °FPassing clouds.23 mph76%29.36 "HgN/A
11:55 PM
Sun, Mar 29
46 °FPassing clouds.23 mph76%29.36 "HgN/A
11:25 PM46 °FClear.24 mph76%29.36 "Hg10 mi
10:55 PM45 °FClear.21 mph87%29.36 "Hg10 mi
10:25 PM45 °FPassing clouds.21 mph87%29.33 "HgN/A
9:55 PM45 °FPassing clouds.21 mph87%29.33 "HgN/A
9:25 PM45 °FPassing clouds.22 mph87%29.33 "HgN/A
8:55 PM46 °FBroken clouds.23 mph82%29.30 "HgN/A
8:25 PM46 °FBroken clouds.26 mph87%29.27 "HgN/A
7:55 PM46 °FBroken clouds.30 mph87%29.24 "HgN/A
7:25 PM46 °FBroken clouds.28 mph87%29.21 "HgN/A
6:55 PM48 °FScattered clouds.35 mph87%29.18 "HgN/A
6:25 PM48 °FSprinkles. Broken clouds.32 mph94%29.15 "HgN/A
5:55 PM52 °FBroken clouds.39 mph88%29.15 "Hg5 mi
5:25 PM52 °FSprinkles. Broken clouds.38 mph88%29.15 "Hg5 mi
4:55 PM52 °FBroken clouds.37 mph88%29.18 "Hg6 mi
4:25 PM50 °FRain. Broken clouds.35 mph100%29.21 "Hg2 mi
3:55 PM50 °FRain. Broken clouds.36 mph94%29.21 "Hg3 mi
3:25 PM50 °FRain. Partly sunny.30 mph94%29.27 "Hg4 mi
Weather by CustomWeather, © 2015

See weather overviewHow to use our weather pages